Find Starlink 1234

NORAD ID: 45190 Int'l Des: 2020-012 Owner: SPXS Country: US Constellation: starlink operational
LEOCIRCULAR

Live Position

Loading 3D Globe...

About Starlink 1234

Description loading...

Upcoming Passes

Passes for default location (London). Set your location on the main map for personalized predictions.

Altitude History

Loading altitude history...

Two-Line Element Set

1 45190U 20012N 26121.54093341 .00075439 00000-0 62244-3 0 9994
2 45190 53.0410 65.2981 0008774 97.3074 262.8939 15.69640197344166
Epoch: May 1, 2026 • Age: 16 hours

Current Status

Altitude 357.6 km
Velocity 7.70 km/s
Sub-Earth Point 37.30°N, 85.09°W
Launch Date Feb 17, 2020
Age 6.2 years
Type internet

Technical Details

Classification Payload
Mass 260.00 kg
Dry Mass 248.00 kg
Total Mass 260.00 kg
Length 0.20 m
Diameter 2.80 m
Span 9.00 m
Shape Box + pan
Manufacturer SPXS
Bus Type Starlink
Phase Status In Orbit
Owner/State SPXS/US

Most Searched